{"data":{"norad_id":63149,"intl_designator":"2025-043T","name":"STARLINK-32939","alt_names":[],"object_type":"PAYLOAD","status":"ACTIVE","operator":null,"country":"US","launch_date":"2025-03-03","launch_site_code":"AFETR","launch_vehicle":null,"mission":null,"orbit_class":"UNKNOWN","rcs_meters":null,"size_class":null,"mass_kg":null,"dimensions":null,"purposes":["comms"],"wikipedia_slug":null,"has_3d_model":false,"image_url":null,"decayed_at":null,"tle_current":{"epoch":"2026-09-21T12:22:26.477472Z","epoch_age_seconds":74457,"freshness":"FRESH","line1":"1 63149U 25043T   26264.51558423  .00018542  00000+0  68099-3 0  9994","line2":"2 63149  43.0019 350.1133 0001463 263.1205  96.9481 15.27611388 87319","mean_motion":15.27611388,"eccentricity":0.0001463,"inclination_deg":43.0019,"raan_deg":350.1133,"arg_perigee_deg":263.1205,"mean_anomaly_deg":96.9481,"bstar":0.00068099,"rev_number":8731,"period_min":94.264811804349,"perigee_km":481.95133290939,"apogee_km":483.95888846098,"semimajor_km":6861.0921106852,"source":"CELESTRAK","updated_at":"2026-09-22T09:00:49.793386Z"}}}